Time,TemperatureF,DewpointF,PressureIn,WindDirection,WindDirectionDegrees,WindSpeedMPH,WindSpeedGustMPH,Humidity,HourlyPrecipIn,Conditions,Clouds,dailyrainin,SolarRadiationWatts/m^2,SoftwareType,DateUTC
2013-08-29 00:01:00,76.9,72.4,29.98,East,82,0.0,0.0,86,0.00,,SCT024,0.43,0.00,VWS V14.00,2013-08-29 04:01:00,
2013-08-29 00:02:00,76.9,72.7,29.98,East,82,0.0,0.0,87,0.00,,SCT024,0.00,0.00,VWS V14.00,2013-08-29 04:02:00,
2013-08-29 00:07:00,77.0,72.5,29.98,East,82,0.0,2.0,86,0.00,,SCT024,0.00,0.00,VWS V14.00,2013-08-29 04:07:00,
2013-08-29 00:12:00,77.0,72.5,29.98,East,82,2.0,2.0,86,0.00,,SCT024,0.00,0.00,VWS V14.00,2013-08-29 04:12:00,
2013-08-29 00:17:00,77.0,72.5,29.98,East,82,0.0,0.0,86,0.00,,SCT024,0.00,0.00,VWS V14.00,2013-08-29 04:17:00,
2013-08-29 00:22:00,77.0,72.5,29.98,East,82,0.0,0.0,86,0.00,,SCT024,0.00,0.00,VWS V14.00,2013-08-29 04:22:00,
2013-08-29 00:27:00,77.1,72.9,29.98,East,82,0.0,0.0,87,0.00,,SCT024,0.00,0.00,VWS V14.00,2013-08-29 04:27:00,
2013-08-29 00:32:00,77.1,72.9,29.97,East,82,3.0,3.0,87,0.00,,SCT024,0.00,0.00,VWS V14.00,2013-08-29 04:32:00,
2013-08-29 00:37:00,77.2,73.0,29.97,East,82,2.0,3.0,87,0.00,,SCT024,0.00,0.00,VWS V14.00,2013-08-29 04:37:00,
2013-08-29 00:42:00,77.3,73.1,29.97,East,82,0.0,0.0,87,0.00,,SCT024,0.00,0.00,VWS V14.00,2013-08-29 04:42:00,
2013-08-29 00:47:00,77.3,73.1,29.97,East,82,0.0,0.0,87,0.00,,SCT024,0.00,0.00,VWS V14.00,2013-08-29 04:47:00,
2013-08-29 00:52:00,77.3,73.1,29.97,East,82,0.0,0.0,87,0.00,,SCT024,0.00,0.00,VWS V14.00,2013-08-29 04:52:00,
2013-08-29 00:57:00,77.2,73.0,29.97,East,82,0.0,0.0,87,0.00,,SCT024,0.00,0.00,VWS V14.00,2013-08-29 04:57:00,
2013-08-29 01:02:00,77.2,73.0,29.97,East,82,0.0,0.0,87,0.00,,SCT024,0.00,0.00,VWS V14.00,2013-08-29 05:02:00,
2013-08-29 01:08:00,77.0,72.8,29.96,East,82,0.0,0.0,87,0.00,,SCT024,0.00,0.00,VWS V14.00,2013-08-29 05:08:00,
2013-08-29 01:13:00,77.0,72.8,29.96,East,82,0.0,0.0,87,0.00,,SCT024,0.00,0.00,VWS V14.00,2013-08-29 05:13:00,
2013-08-29 01:18:00,76.8,73.0,29.96,East,82,0.0,0.0,88,0.00,,SCT024,0.00,0.00,VWS V14.00,2013-08-29 05:18:00,
2013-08-29 01:23:00,76.7,72.9,29.96,East,82,0.0,0.0,88,0.00,,SCT024,0.00,0.00,VWS V14.00,2013-08-29 05:23:00,
2013-08-29 01:28:00,76.7,72.9,29.96,East,82,0.0,0.0,88,0.00,,SCT024,0.00,0.00,VWS V14.00,2013-08-29 05:28:00,
2013-08-29 01:33:00,76.7,72.9,29.96,East,82,0.0,0.0,88,0.00,,SCT024,0.00,0.00,VWS V14.00,2013-08-29 05:33:00,
2013-08-29 01:38:00,76.6,72.8,29.95,East,82,0.0,0.0,88,0.00,,SCT024,0.00,0.00,VWS V14.00,2013-08-29 05:38:00,
2013-08-29 01:43:00,76.5,72.7,29.95,East,82,0.0,0.0,88,0.00,,SCT024,0.00,0.00,VWS V14.00,2013-08-29 05:43:00,
2013-08-29 01:48:00,76.5,73.0,29.95,East,82,0.0,0.0,89,0.00,,SCT024,0.00,0.00,VWS V14.00,2013-08-29 05:48:00,
2013-08-29 01:53:00,76.4,72.9,29.95,East,82,0.0,0.0,89,0.00,,SCT024,0.00,0.00,VWS V14.00,2013-08-29 05:53:00,
2013-08-29 01:58:00,76.3,72.8,29.95,East,82,0.0,0.0,89,0.00,,SCT024,0.00,0.00,VWS V14.00,2013-08-29 05:58:00,
2013-08-29 02:03:00,76.2,72.7,29.95,East,82,0.0,0.0,89,0.00,,SCT024,0.00,0.00,VWS V14.00,2013-08-29 06:03:00,
2013-08-29 02:08:00,76.1,72.6,29.95,East,82,0.0,0.0,89,0.00,,SCT024,0.00,0.00,VWS V14.00,2013-08-29 06:08:00,
2013-08-29 02:13:00,76.0,72.5,29.95,East,82,0.0,0.0,89,0.00,,SCT024,0.00,0.00,VWS V14.00,2013-08-29 06:13:00,
2013-08-29 02:18:00,76.2,72.7,29.95,East,82,0.0,1.0,89,0.00,,SCT024,0.00,0.00,VWS V14.00,2013-08-29 06:18:00,
2013-08-29 02:23:00,76.2,72.7,29.95,East,82,0.0,0.0,89,0.00,,SCT024,0.00,0.00,VWS V14.00,2013-08-29 06:23:00,
2013-08-29 02:28:00,76.2,72.7,29.95,East,82,0.0,0.0,89,0.00,,SCT024,0.00,0.00,VWS V14.00,2013-08-29 06:28:00,
2013-08-29 02:33:00,76.2,72.7,29.95,East,82,0.0,0.0,89,0.00,,SCT024,0.00,0.00,VWS V14.00,2013-08-29 06:33:00,
2013-08-29 02:38:00,76.2,72.7,29.95,East,82,0.0,0.0,89,0.00,,SCT024,0.00,0.00,VWS V14.00,2013-08-29 06:38:00,
2013-08-29 02:43:00,76.2,72.7,29.95,East,82,0.0,0.0,89,0.00,,SCT024,0.00,0.00,VWS V14.00,2013-08-29 06:43:00,
2013-08-29 02:48:00,76.2,73.1,29.95,East,82,0.0,0.0,90,0.00,,SCT024,0.00,0.00,VWS V14.00,2013-08-29 06:48:00,
2013-08-29 02:53:00,76.1,73.0,29.95,East,82,0.0,0.0,90,0.00,,SCT024,0.00,0.00,VWS V14.00,2013-08-29 06:53:00,
2013-08-29 02:58:00,76.1,73.0,29.95,East,82,0.0,0.0,90,0.00,,SCT024,0.00,0.00,VWS V14.00,2013-08-29 06:58:00,
2013-08-29 03:03:00,76.0,72.9,29.95,East,82,0.0,0.0,90,0.00,,SCT024,0.00,0.00,VWS V14.00,2013-08-29 07:03:00,
2013-08-29 03:08:00,76.0,72.9,29.94,East,82,0.0,1.0,90,0.00,,SCT024,0.00,0.00,VWS V14.00,2013-08-29 07:08:00,
2013-08-29 03:13:00,76.1,73.0,29.95,East,82,0.0,0.0,90,0.00,,SCT024,0.00,0.00,VWS V14.00,2013-08-29 07:13:00,
2013-08-29 03:18:00,76.0,72.9,29.95,East,82,0.0,0.0,90,0.00,,SCT024,0.00,0.00,VWS V14.00,2013-08-29 07:18:00,
2013-08-29 03:23:00,76.0,72.9,29.95,East,82,0.0,0.0,90,0.00,,SCT024,0.00,0.00,VWS V14.00,2013-08-29 07:23:00,
2013-08-29 03:28:00,75.9,72.8,29.95,East,82,1.0,1.0,90,0.00,,SCT024,0.00,0.00,VWS V14.00,2013-08-29 07:28:00,
2013-08-29 03:33:00,75.8,72.7,29.94,East,82,0.0,0.0,90,0.00,,SCT024,0.00,0.00,VWS V14.00,2013-08-29 07:33:00,
2013-08-29 03:38:00,75.7,72.6,29.94,East,82,0.0,0.0,90,0.00,,SCT024,0.00,0.00,VWS V14.00,2013-08-29 07:38:00,
2013-08-29 03:43:00,75.7,72.6,29.94,East,82,0.0,0.0,90,0.00,,SCT024,0.00,0.00,VWS V14.00,2013-08-29 07:43:00,
2013-08-29 03:48:00,75.5,72.4,29.94,East,82,0.0,0.0,90,0.00,,SCT024,0.00,0.00,VWS V14.00,2013-08-29 07:48:00,
2013-08-29 03:53:00,75.5,72.4,29.94,East,82,0.0,0.0,90,0.00,,SCT024,0.00,0.00,VWS V14.00,2013-08-29 07:53:00,
2013-08-29 03:58:00,75.5,72.4,29.93,East,82,0.0,0.0,90,0.00,,SCT024,0.00,0.00,VWS V14.00,2013-08-29 07:58:00,
2013-08-29 04:03:00,75.4,72.3,29.93,East,82,0.0,0.0,90,0.00,,SCT024,0.00,0.00,VWS V14.00,2013-08-29 08:03:00,
2013-08-29 04:08:00,75.3,72.2,29.93,East,82,0.0,0.0,90,0.00,,SCT024,0.00,0.00,VWS V14.00,2013-08-29 08:08:00,
2013-08-29 04:13:00,75.2,72.1,29.93,East,82,0.0,0.0,90,0.00,,SCT024,0.00,0.00,VWS V14.00,2013-08-29 08:13:00,
2013-08-29 04:18:00,75.3,72.2,29.93,East,82,0.0,0.0,90,0.00,,SCT024,0.00,0.00,VWS V14.00,2013-08-29 08:18:00,
2013-08-29 04:23:00,75.2,72.1,29.93,East,82,0.0,0.0,90,0.00,,SCT024,0.00,0.00,VWS V14.00,2013-08-29 08:23:00,
2013-08-29 04:28:00,75.2,72.1,29.93,East,82,0.0,0.0,90,0.00,,SCT024,0.00,0.00,VWS V14.00,2013-08-29 08:28:00,
2013-08-29 04:33:00,75.1,72.0,29.93,East,82,0.0,0.0,90,0.00,,SCT024,0.00,0.00,VWS V14.00,2013-08-29 08:33:00,
2013-08-29 04:38:00,75.0,71.9,29.93,East,82,0.0,0.0,90,0.00,,SCT024,0.00,0.00,VWS V14.00,2013-08-29 08:38:00,
2013-08-29 04:43:00,75.0,71.9,29.93,East,82,0.0,0.0,90,0.00,,SCT024,0.00,0.00,VWS V14.00,2013-08-29 08:43:00,
2013-08-29 04:48:00,74.8,71.7,29.93,East,82,0.0,0.0,90,0.00,,SCT024,0.00,0.00,VWS V14.00,2013-08-29 08:48:00,
2013-08-29 04:54:00,74.7,71.2,29.93,East,82,0.0,0.0,89,0.00,,SCT024,0.00,0.00,VWS V14.00,2013-08-29 08:54:00,
2013-08-29 04:59:00,74.7,71.2,29.93,East,82,0.0,0.0,89,0.00,,SCT024,0.00,0.00,VWS V14.00,2013-08-29 08:59:00,
2013-08-29 05:04:00,74.7,71.2,29.93,East,82,0.0,0.0,89,0.00,,SCT024,0.00,0.00,VWS V14.00,2013-08-29 09:04:00,
2013-08-29 05:09:00,74.6,71.2,29.93,East,82,0.0,0.0,89,0.00,,SCT024,0.00,0.00,VWS V14.00,2013-08-29 09:09:00,
2013-08-29 05:14:00,74.7,71.2,29.93,East,82,0.0,1.0,89,0.00,,SCT024,0.00,0.00,VWS V14.00,2013-08-29 09:14:00,
2013-08-29 05:19:00,74.6,71.2,29.93,East,82,0.0,0.0,89,0.00,,SCT024,0.00,0.00,VWS V14.00,2013-08-29 09:19:00,
2013-08-29 05:24:00,74.6,71.2,29.93,East,82,0.0,0.0,89,0.00,,SCT024,0.00,0.00,VWS V14.00,2013-08-29 09:24:00,
2013-08-29 05:29:00,74.6,71.2,29.93,East,82,0.0,0.0,89,0.00,,SCT024,0.00,0.00,VWS V14.00,2013-08-29 09:29:00,
2013-08-29 05:34:00,74.6,71.2,29.93,East,82,0.0,0.0,89,0.00,,SCT024,0.00,0.00,VWS V14.00,2013-08-29 09:34:00,
2013-08-29 05:39:00,74.6,71.2,29.93,East,82,0.0,0.0,89,0.00,,SCT024,0.00,0.00,VWS V14.00,2013-08-29 09:39:00,
2013-08-29 05:44:00,74.7,71.2,29.93,East,82,0.0,0.0,89,0.00,,SCT024,0.00,0.00,VWS V14.00,2013-08-29 09:44:00,
2013-08-29 05:49:00,74.6,71.2,29.93,East,82,0.0,0.0,89,0.00,,SCT024,0.00,0.00,VWS V14.00,2013-08-29 09:49:00,
2013-08-29 05:54:00,74.5,71.1,29.93,East,82,0.0,0.0,89,0.00,,SCT024,0.00,0.00,VWS V14.00,2013-08-29 09:54:00,
2013-08-29 05:59:00,74.5,71.1,29.94,East,82,0.0,2.0,89,0.00,,SCT024,0.00,0.00,VWS V14.00,2013-08-29 09:59:00,
2013-08-29 06:04:00,74.5,71.1,29.94,East,82,0.0,0.0,89,0.00,,SCT024,0.00,0.00,VWS V14.00,2013-08-29 10:04:00,
2013-08-29 06:09:00,74.5,71.1,29.94,East,82,0.0,0.0,89,0.00,,SCT024,0.00,0.00,VWS V14.00,2013-08-29 10:09:00,
2013-08-29 06:14:00,74.5,71.1,29.94,East,82,0.0,0.0,89,0.00,,SCT024,0.00,0.00,VWS V14.00,2013-08-29 10:14:00,
2013-08-29 06:19:00,74.5,71.1,29.94,East,82,0.0,0.0,89,0.00,,SCT024,0.00,0.00,VWS V14.00,2013-08-29 10:19:00,
2013-08-29 06:24:00,74.5,71.1,29.94,East,82,0.0,0.0,89,0.00,,SCT024,0.00,0.00,VWS V14.00,2013-08-29 10:24:00,
2013-08-29 06:29:00,74.6,71.2,29.94,East,82,0.0,0.0,89,0.00,,SCT024,0.00,0.00,VWS V14.00,2013-08-29 10:29:00,
2013-08-29 06:34:00,74.5,71.1,29.94,East,82,0.0,0.0,89,0.00,,SCT024,0.00,0.00,VWS V14.00,2013-08-29 10:34:00,
2013-08-29 06:39:00,74.5,71.1,29.94,East,82,0.0,0.0,89,0.00,,SCT024,0.00,0.00,VWS V14.00,2013-08-29 10:39:00,
2013-08-29 06:45:00,74.5,71.1,29.94,East,82,0.0,0.0,89,0.00,,SCT024,0.00,0.00,VWS V14.00,2013-08-29 10:45:00,
2013-08-29 06:50:00,74.5,71.1,29.94,East,82,0.0,0.0,89,0.00,,SCT024,0.00,0.00,VWS V14.00,2013-08-29 10:50:00,
2013-08-29 06:55:00,74.4,70.9,29.94,East,82,0.0,0.0,89,0.00,,SCT024,0.00,0.00,VWS V14.00,2013-08-29 10:55:00,
2013-08-29 07:00:00,74.4,70.9,29.94,East,82,0.0,0.0,89,0.00,,SCT024,0.00,0.00,VWS V14.00,2013-08-29 11:00:00,
2013-08-29 07:05:00,74.4,70.9,29.94,East,82,0.0,0.0,89,0.00,,SCT024,0.00,0.00,VWS V14.00,2013-08-29 11:05:00,
2013-08-29 07:10:00,74.4,70.9,29.94,East,82,0.0,0.0,89,0.00,,SCT024,0.00,5.00,VWS V14.00,2013-08-29 11:10:00,
2013-08-29 07:15:00,74.5,71.1,29.95,East,82,0.0,1.0,89,0.00,,SCT024,0.00,53.00,VWS V14.00,2013-08-29 11:15:00,
2013-08-29 07:20:00,74.6,71.2,29.95,East,82,0.0,0.0,89,0.00,,SCT024,0.00,84.00,VWS V14.00,2013-08-29 11:20:00,
2013-08-29 07:25:00,74.7,71.2,29.95,East,82,0.0,0.0,89,0.00,,SCT024,0.00,105.00,VWS V14.00,2013-08-29 11:25:00,
2013-08-29 07:30:00,74.8,71.7,29.95,East,82,0.0,0.0,90,0.00,,SCT024,0.00,121.00,VWS V14.00,2013-08-29 11:30:00,
2013-08-29 07:35:00,74.9,71.8,29.95,East,82,0.0,1.0,90,0.00,,FEW025CU,0.00,134.00,VWS V14.00,2013-08-29 11:35:00,
2013-08-29 07:40:00,75.1,71.6,29.95,East,82,0.0,0.0,89,0.00,,FEW025CU,0.00,18.00,VWS V14.00,2013-08-29 11:40:00,
2013-08-29 07:45:00,75.2,71.7,29.95,East,82,0.0,0.0,89,0.00,,FEW025CU,0.00,32.00,VWS V14.00,2013-08-29 11:45:00,
2013-08-29 07:50:00,75.3,71.8,29.96,East,82,0.0,0.0,89,0.00,,FEW025CU,0.00,32.00,VWS V14.00,2013-08-29 11:50:00,
2013-08-29 07:55:00,75.4,71.9,29.96,East,82,0.0,0.0,89,0.00,,FEW025CU,0.00,18.00,VWS V14.00,2013-08-29 11:55:00,
2013-08-29 08:00:00,75.5,72.0,29.96,East,82,0.0,0.0,89,0.00,,FEW025CU,0.00,18.00,VWS V14.00,2013-08-29 12:00:00,
2013-08-29 08:05:00,75.5,72.0,29.96,East,82,0.0,0.0,89,0.00,,FEW025CU,0.00,18.00,VWS V14.00,2013-08-29 12:05:00,
2013-08-29 08:10:00,75.6,72.1,29.96,East,82,1.0,1.0,89,0.00,,FEW025CU,0.00,18.00,VWS V14.00,2013-08-29 12:10:00,
2013-08-29 08:15:00,75.7,72.2,29.96,East,82,0.0,0.0,89,0.00,,FEW025CU,0.00,19.00,VWS V14.00,2013-08-29 12:15:00,
2013-08-29 08:20:00,75.9,72.4,29.96,East,82,0.0,0.0,89,0.00,,FEW025CU,0.00,21.00,VWS V14.00,2013-08-29 12:20:00,
2013-08-29 08:25:00,76.0,72.2,29.96,East,82,0.0,0.0,88,0.00,,FEW025CU,0.00,21.00,VWS V14.00,2013-08-29 12:25:00,
2013-08-29 08:30:00,76.0,72.2,29.96,East,82,0.0,0.0,88,0.00,,FEW025CU,0.00,23.00,VWS V14.00,2013-08-29 12:30:00,
2013-08-29 08:35:00,76.1,72.3,29.96,East,82,0.0,0.0,88,0.00,,FEW025CU,0.00,26.00,VWS V14.00,2013-08-29 12:35:00,
2013-08-29 08:40:00,76.2,72.4,29.97,East,82,0.0,0.0,88,0.00,,FEW025CU,0.00,30.00,VWS V14.00,2013-08-29 12:40:00,
2013-08-29 08:46:00,76.3,72.5,29.96,East,82,0.0,0.0,88,0.00,,FEW025CU,0.00,35.00,VWS V14.00,2013-08-29 12:46:00,
2013-08-29 08:51:00,76.4,72.6,29.97,North,360,0.0,0.0,88,0.00,,FEW025CU,0.00,49.00,VWS V14.00,2013-08-29 12:51:00,
2013-08-29 08:56:00,76.7,72.9,29.96,North,360,0.0,0.0,88,0.00,,FEW025CU,0.00,153.00,VWS V14.00,2013-08-29 12:56:00,
2013-08-29 09:01:00,77.3,73.5,29.97,NNE,20,0.0,0.0,88,0.00,,FEW025CU,0.00,160.00,VWS V14.00,2013-08-29 13:01:00,
2013-08-29 09:06:00,77.9,74.1,29.97,NNE,20,0.0,0.0,88,0.00,,FEW025CU,0.00,74.00,VWS V14.00,2013-08-29 13:06:00,
2013-08-29 09:11:00,78.5,74.3,29.97,NNE,20,0.0,0.0,87,0.00,,FEW025CU,0.00,162.00,VWS V14.00,2013-08-29 13:11:00,
2013-08-29 09:16:00,79.2,74.7,29.97,NNE,20,0.0,0.0,86,0.00,,FEW025CU,0.00,165.00,VWS V14.00,2013-08-29 13:16:00,
2013-08-29 09:21:00,80.0,75.1,29.96,NNE,21,2.0,3.0,85,0.00,,FEW025CU,0.00,167.00,VWS V14.00,2013-08-29 13:21:00,
2013-08-29 09:26:00,80.7,75.4,29.97,NNE,23,0.0,3.0,84,0.00,,FEW025CU,0.00,169.00,VWS V14.00,2013-08-29 13:26:00,
2013-08-29 09:31:00,81.1,75.4,29.97,NNE,23,0.0,0.0,83,0.00,,FEW025CU,0.00,171.00,VWS V14.00,2013-08-29 13:31:00,
2013-08-29 09:36:00,81.5,75.5,29.97,NNE,23,0.0,3.0,82,0.00,,FEW025CU,0.00,172.00,VWS V14.00,2013-08-29 13:36:00,
2013-08-29 09:41:00,81.9,75.9,29.97,NNE,23,0.0,2.0,82,0.00,,FEW025CU,0.00,174.00,VWS V14.00,2013-08-29 13:41:00,
2013-08-29 09:46:00,82.4,76.0,29.97,NE,40,4.0,6.0,81,0.00,,FEW025CU,0.00,176.00,VWS V14.00,2013-08-29 13:46:00,
2013-08-29 09:51:00,82.5,75.7,29.97,NE,41,0.0,1.0,80,0.00,,FEW025CU,0.00,178.00,VWS V14.00,2013-08-29 13:51:00,
2013-08-29 09:56:00,82.9,76.1,29.96,NE,41,0.0,3.0,80,0.00,,FEW025CU,0.00,178.00,VWS V14.00,2013-08-29 13:56:00,
2013-08-29 10:01:00,83.3,76.1,29.97,NE,46,5.0,6.0,79,0.00,,FEW025CU,0.00,178.00,VWS V14.00,2013-08-29 14:01:00,
2013-08-29 10:06:00,83.4,76.2,29.97,NE,49,0.0,2.0,79,0.00,,FEW025CU,0.00,181.00,VWS V14.00,2013-08-29 14:06:00,
2013-08-29 10:11:00,83.7,76.1,29.97,ENE,68,3.0,6.0,78,0.00,,FEW025CU,0.00,181.00,VWS V14.00,2013-08-29 14:11:00,
2013-08-29 10:16:00,84.1,76.1,29.97,ENE,70,2.0,5.0,77,0.00,,FEW025CU,0.00,183.00,VWS V14.00,2013-08-29 14:16:00,
2013-08-29 10:22:00,84.2,75.4,29.97,ENE,70,2.0,4.0,75,0.00,,FEW025CU,0.00,192.00,VWS V14.00,2013-08-29 14:22:00,
2013-08-29 10:27:00,84.3,76.3,29.97,ENE,70,3.0,3.0,77,0.00,,FEW025CU,0.00,193.00,VWS V14.00,2013-08-29 14:27:00,
2013-08-29 10:32:00,84.6,75.8,29.97,East,91,0.0,0.0,75,0.00,,FEW025CU,0.00,197.00,VWS V14.00,2013-08-29 14:32:00,
2013-08-29 10:37:00,84.8,76.0,29.97,SE,138,6.0,9.0,75,0.00,,FEW025CU,0.00,197.00,VWS V14.00,2013-08-29 14:37:00,
2013-08-29 10:42:00,85.1,75.9,29.97,SE,139,0.0,0.0,74,0.00,,FEW025CU,0.00,206.00,VWS V14.00,2013-08-29 14:42:00,
2013-08-29 10:47:00,85.4,75.3,29.97,SE,142,5.0,6.0,72,0.00,,FEW025CU,0.00,199.00,VWS V14.00,2013-08-29 14:47:00,
2013-08-29 10:52:00,85.9,75.0,29.97,SE,142,0.0,0.0,70,0.00,,FEW025CU,0.00,197.00,VWS V14.00,2013-08-29 14:52:00,
2013-08-29 10:57:00,86.3,76.2,29.97,SE,142,0.0,0.0,72,0.00,,FEW025CU,0.00,195.00,VWS V14.00,2013-08-29 14:57:00,
2013-08-29 11:02:00,86.0,75.1,29.97,SE,130,5.0,6.0,70,0.00,,FEW025CU,0.00,192.00,VWS V14.00,2013-08-29 15:02:00,
2013-08-29 11:07:00,85.4,74.9,29.97,ESE,121,5.0,5.0,71,0.00,,FEW025CU,0.00,70.00,VWS V14.00,2013-08-29 15:07:00,
2013-08-29 11:12:00,85.0,74.6,29.97,ESE,110,0.0,3.0,71,0.00,,FEW025CU,0.00,193.00,VWS V14.00,2013-08-29 15:12:00,
2013-08-29 11:17:00,85.1,74.6,29.97,ESE,110,0.0,3.0,71,0.00,,FEW025CU,0.00,213.00,VWS V14.00,2013-08-29 15:17:00,
2013-08-29 11:22:00,85.5,75.0,29.97,ESE,118,7.0,7.0,71,0.00,,FEW025CU,0.00,197.00,VWS V14.00,2013-08-29 15:22:00,
2013-08-29 11:27:00,86.0,74.7,29.97,ESE,120,0.0,0.0,69,0.00,,FEW025CU,0.00,69.00,VWS V14.00,2013-08-29 15:27:00,
2013-08-29 11:32:00,86.0,74.7,29.97,ESE,121,4.0,5.0,69,0.00,,SCT024,0.00,153.00,VWS V14.00,2013-08-29 15:32:00,
2013-08-29 11:37:00,86.2,75.3,29.97,SE,124,4.0,6.0,70,0.00,,SCT024,0.00,234.00,VWS V14.00,2013-08-29 15:37:00,
2013-08-29 11:42:00,86.5,75.1,29.97,SE,142,2.0,5.0,69,0.00,,SCT024,0.00,93.00,VWS V14.00,2013-08-29 15:42:00,
2013-08-29 11:47:00,86.8,75.8,29.97,SE,142,6.0,6.0,70,0.00,,SCT024,0.00,98.00,VWS V14.00,2013-08-29 15:47:00,
2013-08-29 11:52:00,86.6,76.5,29.97,SSE,155,7.0,11.0,72,0.00,,SCT024,0.00,91.00,VWS V14.00,2013-08-29 15:52:00,
2013-08-29 11:57:00,86.1,76.0,29.97,SSE,160,4.0,9.0,72,0.00,,SCT024,0.00,144.00,VWS V14.00,2013-08-29 15:57:00,
2013-08-29 12:02:00,86.1,76.0,29.97,SE,144,5.0,13.0,72,0.00,,SCT024,0.00,123.00,VWS V14.00,2013-08-29 16:02:00,
2013-08-29 12:07:00,85.6,75.5,29.97,ESE,113,8.0,9.0,72,0.00,,SCT024,0.00,127.00,VWS V14.00,2013-08-29 16:07:00,
2013-08-29 12:13:00,85.0,75.8,29.97,ESE,113,11.0,12.0,74,0.00,,SCT024,0.00,90.00,VWS V14.00,2013-08-29 16:13:00,
2013-08-29 12:18:00,84.9,76.1,29.97,SE,144,5.0,9.0,75,0.00,,SCT024,0.00,83.00,VWS V14.00,2013-08-29 16:18:00,
2013-08-29 12:23:00,84.8,75.2,29.97,ESE,116,7.0,10.0,73,0.00,,SCT024,0.00,77.00,VWS V14.00,2013-08-29 16:23:00,
2013-08-29 12:28:00,84.9,76.1,29.97,ESE,123,0.0,2.0,75,0.00,,SCT024,0.00,221.00,VWS V14.00,2013-08-29 16:28:00,
2013-08-29 12:33:00,85.6,76.0,29.97,SSE,150,4.0,9.0,73,0.00,,SCT024,0.00,225.00,VWS V14.00,2013-08-29 16:33:00,
2013-08-29 12:38:00,86.3,76.2,29.97,SSE,159,5.0,11.0,72,0.00,,SCT024,0.00,220.00,VWS V14.00,2013-08-29 16:38:00,
2013-08-29 12:43:00,86.4,76.3,29.97,SE,136,4.0,6.0,72,0.00,,SCT024,0.00,195.00,VWS V14.00,2013-08-29 16:43:00,
2013-08-29 12:48:00,86.1,76.0,29.96,ESE,123,3.0,9.0,72,0.00,,SCT024,0.00,172.00,VWS V14.00,2013-08-29 16:48:00,
2013-08-29 12:53:00,85.8,75.7,29.96,ESE,117,8.0,12.0,72,0.00,,SCT024,0.00,183.00,VWS V14.00,2013-08-29 16:53:00,
2013-08-29 12:58:00,86.1,76.0,29.96,SE,144,7.0,12.0,72,0.00,,SCT024,0.00,190.00,VWS V14.00,2013-08-29 16:58:00,
2013-08-29 13:03:00,86.7,75.8,29.96,SE,138,6.0,7.0,70,0.00,,SCT024,0.00,202.00,VWS V14.00,2013-08-29 17:03:00,
2013-08-29 13:08:00,87.0,75.6,29.96,SSE,163,7.0,7.0,69,0.00,,SCT024,0.00,188.00,VWS V14.00,2013-08-29 17:08:00,
2013-08-29 13:13:00,87.2,75.4,29.95,SSE,162,3.0,10.0,68,0.00,,SCT024,0.00,195.00,VWS V14.00,2013-08-29 17:13:00,
2013-08-29 13:18:00,87.5,75.2,29.95,SSE,150,5.0,7.0,67,0.00,,SCT024,0.00,79.00,VWS V14.00,2013-08-29 17:18:00,
2013-08-29 13:23:00,87.4,75.1,29.95,SE,146,0.0,0.0,67,0.00,,SCT024,0.00,183.00,VWS V14.00,2013-08-29 17:23:00,
2013-08-29 13:28:00,87.3,75.0,29.94,SE,141,0.0,0.0,67,0.00,,SCT024,0.00,183.00,VWS V14.00,2013-08-29 17:28:00,
2013-08-29 13:33:00,87.5,76.1,29.94,SE,125,6.0,10.0,69,0.00,,FEW025CU,0.00,172.00,VWS V14.00,2013-08-29 17:33:00,
2013-08-29 13:38:00,87.4,75.6,29.94,SE,126,7.0,7.0,68,0.00,,FEW025CU,0.00,151.00,VWS V14.00,2013-08-29 17:38:00,
2013-08-29 13:43:00,87.8,75.5,29.94,SE,134,7.0,11.0,67,0.00,,FEW025CU,0.00,179.00,VWS V14.00,2013-08-29 17:43:00,
2013-08-29 13:48:00,87.7,74.5,29.94,ESE,114,10.0,11.0,65,0.00,,FEW025CU,0.00,176.00,VWS V14.00,2013-08-29 17:48:00,
2013-08-29 13:53:00,86.7,72.6,29.94,SE,127,7.0,8.0,63,0.00,,FEW025CU,0.00,93.00,VWS V14.00,2013-08-29 17:53:00,
2013-08-29 13:58:00,86.8,73.6,29.93,SE,130,3.0,5.0,65,0.00,,FEW025CU,0.00,181.00,VWS V14.00,2013-08-29 17:58:00,
2013-08-29 14:04:00,87.0,74.7,29.93,SE,133,5.0,8.0,67,0.00,,FEW025CU,0.00,186.00,VWS V14.00,2013-08-29 18:04:00,
2013-08-29 14:09:00,87.4,74.7,29.93,SSE,156,5.0,9.0,66,0.00,,FEW025CU,0.00,183.00,VWS V14.00,2013-08-29 18:09:00,
2013-08-29 14:14:00,87.8,75.0,29.93,SSE,156,5.0,5.0,66,0.00,,FEW025CU,0.00,185.00,VWS V14.00,2013-08-29 18:14:00,
2013-08-29 14:19:00,88.1,74.4,29.93,ESE,115,7.0,10.0,64,0.00,,FEW025CU,0.00,190.00,VWS V14.00,2013-08-29 18:19:00,
2013-08-29 14:24:00,87.9,75.1,29.93,SE,130,6.0,8.0,66,0.00,,FEW025CU,0.00,199.00,VWS V14.00,2013-08-29 18:24:00,
2013-08-29 14:29:00,88.1,73.9,29.93,South,169,3.0,12.0,63,0.00,,FEW025CU,0.00,139.00,VWS V14.00,2013-08-29 18:29:00,
2013-08-29 14:34:00,88.2,74.5,29.93,South,169,2.0,5.0,64,0.00,,FEW025CU,0.00,211.00,VWS V14.00,2013-08-29 18:34:00,
2013-08-29 14:39:00,88.6,75.3,29.92,SE,135,7.0,8.0,65,0.00,,FEW025CU,0.00,174.00,VWS V14.00,2013-08-29 18:39:00,
2013-08-29 14:44:00,88.1,74.9,29.92,SE,146,4.0,8.0,65,0.00,,FEW025CU,0.00,100.00,VWS V14.00,2013-08-29 18:44:00,
2013-08-29 14:49:00,88.1,75.3,29.92,SSE,148,10.0,10.0,66,0.00,,FEW025CU,0.00,220.00,VWS V14.00,2013-08-29 18:49:00,
2013-08-29 14:54:00,88.1,76.2,29.92,South,169,5.0,7.0,68,0.00,,FEW025CU,0.00,160.00,VWS V14.00,2013-08-29 18:54:00,
2013-08-29 14:59:00,88.2,76.3,29.91,SSE,147,6.0,11.0,68,0.00,,FEW025CU,0.00,200.00,VWS V14.00,2013-08-29 18:59:00,
2013-08-29 15:04:00,87.6,76.6,29.91,ESE,120,7.0,7.0,70,0.00,,FEW025CU,0.00,197.00,VWS V14.00,2013-08-29 19:04:00,
2013-08-29 15:09:00,87.6,75.3,29.91,SE,140,4.0,6.0,67,0.00,,FEW025CU,0.00,91.00,VWS V14.00,2013-08-29 19:09:00,
2013-08-29 15:14:00,87.3,75.0,29.91,SE,130,0.0,4.0,67,0.00,,FEW025CU,0.00,70.00,VWS V14.00,2013-08-29 19:14:00,
2013-08-29 15:19:00,87.2,75.8,29.91,SE,134,4.0,6.0,69,0.00,,FEW025CU,0.00,188.00,VWS V14.00,2013-08-29 19:19:00,
2013-08-29 15:24:00,87.7,75.8,29.90,SE,139,2.0,7.0,68,0.00,,FEW025CU,0.00,193.00,VWS V14.00,2013-08-29 19:24:00,
2013-08-29 15:29:00,87.8,75.9,29.90,SE,127,6.0,6.0,68,0.00,,FEW025CU,0.00,70.00,VWS V14.00,2013-08-29 19:29:00,
2013-08-29 15:34:00,87.3,75.9,29.90,SE,130,8.0,9.0,69,0.00,,FEW025CU,0.00,98.00,VWS V14.00,2013-08-29 19:34:00,
2013-08-29 15:39:00,87.2,76.2,29.90,SE,146,3.0,7.0,70,0.00,,FEW025CU,0.00,116.00,VWS V14.00,2013-08-29 19:39:00,
2013-08-29 15:44:00,87.7,76.3,29.90,SSE,157,0.0,5.0,69,0.00,,FEW025CU,0.00,185.00,VWS V14.00,2013-08-29 19:44:00,
2013-08-29 15:49:00,88.4,76.5,29.90,SSE,163,7.0,11.0,68,0.00,,FEW025CU,0.00,181.00,VWS V14.00,2013-08-29 19:49:00,
2013-08-29 15:54:00,88.7,76.3,29.90,SSE,160,4.0,5.0,67,0.00,,FEW025CU,0.00,77.00,VWS V14.00,2013-08-29 19:54:00,
2013-08-29 15:59:00,88.6,75.8,29.90,SSE,162,3.0,3.0,66,0.00,,FEW025CU,0.00,69.00,VWS V14.00,2013-08-29 19:59:00,
2013-08-29 16:04:00,88.2,75.9,29.90,SSE,168,6.0,9.0,67,0.00,,FEW025CU,0.00,76.00,VWS V14.00,2013-08-29 20:04:00,
2013-08-29 16:09:00,87.7,75.4,29.89,SSE,165,2.0,6.0,67,0.00,,FEW025CU,0.00,162.00,VWS V14.00,2013-08-29 20:09:00,
2013-08-29 16:14:00,87.8,75.5,29.89,SSE,163,5.0,7.0,67,0.00,,FEW025CU,0.00,149.00,VWS V14.00,2013-08-29 20:14:00,
2013-08-29 16:19:00,87.9,75.6,29.89,SSE,159,7.0,10.0,67,0.00,,FEW025CU,0.00,151.00,VWS V14.00,2013-08-29 20:19:00,
2013-08-29 16:24:00,87.7,75.8,29.89,SSE,159,11.0,11.0,68,0.00,,FEW025CU,0.00,146.00,VWS V14.00,2013-08-29 20:24:00,
2013-08-29 16:30:00,87.7,75.8,29.90,SSE,151,6.0,8.0,68,0.00,,FEW025CU,0.00,95.00,VWS V14.00,2013-08-29 20:30:00,
2013-08-29 16:35:00,87.9,75.6,29.90,SSE,168,3.0,7.0,67,0.00,,CLR,0.00,148.00,VWS V14.00,2013-08-29 20:35:00,
2013-08-29 16:40:00,88.2,75.9,29.89,SSE,161,4.0,7.0,67,0.00,,CLR,0.00,148.00,VWS V14.00,2013-08-29 20:40:00,
2013-08-29 16:45:00,88.2,75.9,29.90,SSE,160,5.0,8.0,67,0.00,,CLR,0.00,146.00,VWS V14.00,2013-08-29 20:45:00,
2013-08-29 16:50:00,88.3,75.5,29.90,SSE,165,3.0,10.0,66,0.00,,CLR,0.00,139.00,VWS V14.00,2013-08-29 20:50:00,
2013-08-29 16:55:00,88.5,75.2,29.90,SE,143,10.0,12.0,65,0.00,,CLR,0.00,135.00,VWS V14.00,2013-08-29 20:55:00,
2013-08-29 17:00:00,88.4,75.6,29.90,SE,146,10.0,13.0,66,0.00,,CLR,0.00,137.00,VWS V14.00,2013-08-29 21:00:00,
2013-08-29 17:05:00,88.0,75.2,29.90,SSE,153,7.0,10.0,66,0.00,,CLR,0.00,134.00,VWS V14.00,2013-08-29 21:05:00,
2013-08-29 17:10:00,87.7,75.4,29.90,South,169,4.0,11.0,67,0.00,,CLR,0.00,132.00,VWS V14.00,2013-08-29 21:10:00,
2013-08-29 17:15:00,87.5,74.8,29.90,South,171,6.0,8.0,66,0.00,,CLR,0.00,127.00,VWS V14.00,2013-08-29 21:15:00,
2013-08-29 17:20:00,87.6,75.3,29.90,South,175,4.0,11.0,67,0.00,,CLR,0.00,123.00,VWS V14.00,2013-08-29 21:20:00,
2013-08-29 17:25:00,87.4,75.6,29.90,South,171,5.0,6.0,68,0.00,,CLR,0.00,121.00,VWS V14.00,2013-08-29 21:25:00,
2013-08-29 17:30:00,87.3,75.4,29.90,SSE,163,5.0,5.0,68,0.00,,CLR,0.00,120.00,VWS V14.00,2013-08-29 21:30:00,
2013-08-29 17:35:00,87.3,75.4,29.90,South,170,4.0,10.0,68,0.00,,CLR,0.00,118.00,VWS V14.00,2013-08-29 21:35:00,
2013-08-29 17:40:00,87.1,75.7,29.90,SSE,155,7.0,9.0,69,0.00,,CLR,0.00,114.00,VWS V14.00,2013-08-29 21:40:00,
2013-08-29 17:45:00,86.9,75.9,29.90,SSE,148,3.0,7.0,70,0.00,,CLR,0.00,113.00,VWS V14.00,2013-08-29 21:45:00,
2013-08-29 17:50:00,87.0,76.0,29.90,SSE,159,9.0,11.0,70,0.00,,CLR,0.00,111.00,VWS V14.00,2013-08-29 21:50:00,
2013-08-29 17:55:00,87.0,75.6,29.90,South,186,13.0,13.0,69,0.00,,CLR,0.00,109.00,VWS V14.00,2013-08-29 21:55:00,
2013-08-29 18:00:00,86.7,75.8,29.90,SSE,163,4.0,10.0,70,0.00,,CLR,0.00,105.00,VWS V14.00,2013-08-29 22:00:00,
2013-08-29 18:05:00,86.6,75.7,29.90,South,175,5.0,14.0,70,0.00,,CLR,0.00,100.00,VWS V14.00,2013-08-29 22:05:00,
2013-08-29 18:10:00,86.3,75.8,29.90,SSE,162,4.0,8.0,71,0.00,,CLR,0.00,97.00,VWS V14.00,2013-08-29 22:10:00,
2013-08-29 18:15:00,86.1,75.6,29.90,SSE,164,6.0,7.0,71,0.00,,CLR,0.00,93.00,VWS V14.00,2013-08-29 22:15:00,
2013-08-29 18:20:00,85.9,75.8,29.90,SSE,159,11.0,11.0,72,0.00,,CLR,0.00,91.00,VWS V14.00,2013-08-29 22:20:00,
2013-08-29 18:25:00,85.7,76.1,29.89,SSE,167,5.0,9.0,73,0.00,,CLR,0.00,88.00,VWS V14.00,2013-08-29 22:25:00,
2013-08-29 18:30:00,85.6,76.0,29.89,South,184,6.0,6.0,73,0.00,,CLR,0.00,84.00,VWS V14.00,2013-08-29 22:30:00,
2013-08-29 18:36:00,85.4,75.8,29.89,South,182,7.0,12.0,73,0.00,,FEW080,0.00,81.00,VWS V14.00,2013-08-29 22:36:00,
2013-08-29 18:41:00,85.4,76.2,29.89,South,173,1.0,7.0,74,0.00,,FEW080,0.00,74.00,VWS V14.00,2013-08-29 22:41:00,
2013-08-29 18:46:00,85.2,76.0,29.89,South,178,12.0,12.0,74,0.00,,FEW080,0.00,70.00,VWS V14.00,2013-08-29 22:46:00,
2013-08-29 18:51:00,85.2,76.4,29.89,South,181,6.0,10.0,75,0.00,,FEW080,0.00,63.00,VWS V14.00,2013-08-29 22:51:00,
2013-08-29 18:56:00,85.0,75.8,29.88,South,175,9.0,12.0,74,0.00,,FEW080,0.00,58.00,VWS V14.00,2013-08-29 22:56:00,
2013-08-29 19:01:00,84.9,76.1,29.88,SSE,159,6.0,10.0,75,0.00,,FEW080,0.00,51.00,VWS V14.00,2013-08-29 23:01:00,
2013-08-29 19:06:00,84.8,76.0,29.88,SSE,157,7.0,11.0,75,0.00,,FEW080,0.00,44.00,VWS V14.00,2013-08-29 23:06:00,
2013-08-29 19:11:00,84.5,75.7,29.89,SSE,148,9.0,9.0,75,0.00,,FEW080,0.00,37.00,VWS V14.00,2013-08-29 23:11:00,
2013-08-29 19:16:00,84.3,75.5,29.89,SSE,157,5.0,10.0,75,0.00,,FEW080,0.00,28.00,VWS V14.00,2013-08-29 23:16:00,
2013-08-29 19:21:00,84.2,75.8,29.89,SSE,156,3.0,6.0,76,0.00,,FEW080,0.00,11.00,VWS V14.00,2013-08-29 23:21:00,
2013-08-29 19:26:00,84.1,75.3,29.89,SSE,164,5.0,10.0,75,0.00,,FEW080,0.00,0.00,VWS V14.00,2013-08-29 23:26:00,
2013-08-29 19:31:00,83.9,75.5,29.88,SSE,157,5.0,7.0,76,0.00,,FEW080,0.00,0.00,VWS V14.00,2013-08-29 23:31:00,
2013-08-29 19:36:00,83.8,75.4,29.88,SSE,164,4.0,9.0,76,0.00,,FEW023,0.00,0.00,VWS V14.00,2013-08-29 23:36:00,
2013-08-29 19:41:00,83.7,75.3,29.88,SSE,164,0.0,0.0,76,0.00,,FEW023,0.00,0.00,VWS V14.00,2013-08-29 23:41:00,
2013-08-29 19:46:00,83.6,75.2,29.88,South,170,3.0,4.0,76,0.00,,FEW023,0.00,0.00,VWS V14.00,2013-08-29 23:46:00,
2013-08-29 19:51:00,83.5,75.5,29.88,SSE,167,3.0,6.0,77,0.00,,FEW023,0.00,0.00,VWS V14.00,2013-08-29 23:51:00,
2013-08-29 19:56:00,83.4,75.4,29.89,SSE,162,5.0,7.0,77,0.00,,FEW023,0.00,0.00,VWS V14.00,2013-08-29 23:56:00,
2013-08-29 20:01:00,83.4,75.4,29.89,SSE,162,0.0,0.0,77,0.00,,FEW023,0.00,0.00,VWS V14.00,2013-08-30 00:01:00,
2013-08-29 20:06:00,83.3,75.7,29.90,SSE,162,1.0,4.0,78,0.00,,FEW023,0.00,0.00,VWS V14.00,2013-08-30 00:06:00,
2013-08-29 20:11:00,83.2,75.6,29.90,SSE,163,5.0,6.0,78,0.00,,CLR,0.00,0.00,VWS V14.00,2013-08-30 00:11:00,
2013-08-29 20:16:00,83.1,75.5,29.90,SSE,165,2.0,6.0,78,0.00,,CLR,0.00,0.00,VWS V14.00,2013-08-30 00:16:00,
2013-08-29 20:21:00,83.1,75.5,29.90,SSE,165,4.0,6.0,78,0.00,,CLR,0.00,0.00,VWS V14.00,2013-08-30 00:21:00,
2013-08-29 20:26:00,83.0,75.4,29.90,SSE,165,0.0,1.0,78,0.00,,CLR,0.00,0.00,VWS V14.00,2013-08-30 00:26:00,
2013-08-29 20:31:00,83.0,75.4,29.90,SSE,165,3.0,4.0,78,0.00,,CLR,0.00,0.00,VWS V14.00,2013-08-30 00:31:00,
2013-08-29 20:36:00,82.9,75.3,29.90,SSE,165,0.0,3.0,78,0.00,,CLR,0.00,0.00,VWS V14.00,2013-08-30 00:36:00,
2013-08-29 20:41:00,82.9,75.7,29.90,SSE,165,1.0,4.0,79,0.00,,CLR,0.00,0.00,VWS V14.00,2013-08-30 00:41:00,
2013-08-29 20:46:00,82.8,75.6,29.91,SSE,165,0.0,3.0,79,0.00,,CLR,0.00,0.00,VWS V14.00,2013-08-30 00:46:00,
2013-08-29 20:51:00,82.8,75.6,29.91,SSE,165,0.0,2.0,79,0.00,,CLR,0.00,0.00,VWS V14.00,2013-08-30 00:51:00,
2013-08-29 20:56:00,82.7,75.5,29.92,SSE,165,0.0,0.0,79,0.00,,CLR,0.00,0.00,VWS V14.00,2013-08-30 00:56:00,
2013-08-29 21:01:00,82.6,75.4,29.92,SSE,165,0.0,0.0,79,0.00,,CLR,0.00,0.00,VWS V14.00,2013-08-30 01:01:00,
2013-08-29 21:06:00,82.6,75.4,29.92,SSE,165,0.0,3.0,79,0.00,,CLR,0.00,0.00,VWS V14.00,2013-08-30 01:06:00,
2013-08-29 21:11:00,82.5,75.3,29.92,SSE,165,2.0,2.0,79,0.00,,CLR,0.00,0.00,VWS V14.00,2013-08-30 01:11:00,
2013-08-29 21:16:00,82.5,75.7,29.92,SSE,165,5.0,5.0,80,0.00,,CLR,0.00,0.00,VWS V14.00,2013-08-30 01:16:00,
2013-08-29 21:21:00,82.5,75.7,29.92,SSE,165,2.0,3.0,80,0.00,,CLR,0.00,0.00,VWS V14.00,2013-08-30 01:21:00,
2013-08-29 21:26:00,82.5,75.7,29.92,SSE,165,0.0,0.0,80,0.00,,CLR,0.00,0.00,VWS V14.00,2013-08-30 01:26:00,
2013-08-29 21:31:00,82.4,75.6,29.92,SSE,165,0.0,4.0,80,0.00,,CLR,0.00,0.00,VWS V14.00,2013-08-30 01:31:00,
2013-08-29 21:36:00,82.5,75.7,29.92,SSE,165,0.0,0.0,80,0.00,,CLR,0.00,0.00,VWS V14.00,2013-08-30 01:36:00,
2013-08-29 21:41:00,82.4,75.6,29.93,SSE,165,0.0,0.0,80,0.00,,CLR,0.00,0.00,VWS V14.00,2013-08-30 01:41:00,
2013-08-29 21:46:00,82.4,75.6,29.93,SSE,165,0.0,0.0,80,0.00,,CLR,0.00,0.00,VWS V14.00,2013-08-30 01:46:00,
2013-08-29 21:51:00,82.3,75.9,29.93,SSE,165,0.0,0.0,81,0.00,,CLR,0.00,0.00,VWS V14.00,2013-08-30 01:51:00,
2013-08-29 21:56:00,82.3,75.9,29.93,SSE,165,0.0,0.0,81,0.00,,CLR,0.00,0.00,VWS V14.00,2013-08-30 01:56:00,
2013-08-29 22:01:00,82.2,75.8,29.93,SSE,165,0.0,0.0,81,0.00,,CLR,0.00,0.00,VWS V14.00,2013-08-30 02:01:00,
2013-08-29 22:06:00,82.1,75.7,29.93,SSE,165,0.0,0.0,81,0.00,,CLR,0.00,0.00,VWS V14.00,2013-08-30 02:06:00,
2013-08-29 22:11:00,82.1,75.7,29.93,SSE,165,0.0,0.0,81,0.00,,CLR,0.00,0.00,VWS V14.00,2013-08-30 02:11:00,
2013-08-29 22:16:00,82.0,75.6,29.94,SSE,165,0.0,0.0,81,0.00,,CLR,0.00,0.00,VWS V14.00,2013-08-30 02:16:00,
2013-08-29 22:21:00,82.0,75.6,29.94,SSE,165,0.0,0.0,81,0.00,,CLR,0.00,0.00,VWS V14.00,2013-08-30 02:21:00,
2013-08-29 22:26:00,82.0,75.6,29.94,SSE,165,0.0,0.0,81,0.00,,CLR,0.00,0.00,VWS V14.00,2013-08-30 02:26:00,
2013-08-29 22:31:00,81.9,75.5,29.94,SSE,165,0.0,0.0,81,0.00,,FEW020,0.00,0.00,VWS V14.00,2013-08-30 02:31:00,
2013-08-29 22:36:00,81.8,75.8,29.94,SSE,165,0.0,0.0,82,0.00,,FEW020,0.00,0.00,VWS V14.00,2013-08-30 02:36:00,
2013-08-29 22:41:00,81.8,75.8,29.94,SSE,165,0.0,0.0,82,0.00,,FEW020,0.00,0.00,VWS V14.00,2013-08-30 02:41:00,
2013-08-29 22:46:00,81.8,75.8,29.94,SSE,165,1.0,3.0,82,0.00,,FEW020,0.00,0.00,VWS V14.00,2013-08-30 02:46:00,
2013-08-29 22:51:00,81.7,75.7,29.94,SSE,165,1.0,1.0,82,0.00,,FEW020,0.00,0.00,VWS V14.00,2013-08-30 02:51:00,
2013-08-29 22:56:00,81.7,76.0,29.94,SSE,165,0.0,0.0,83,0.00,,FEW020,0.00,0.00,VWS V14.00,2013-08-30 02:56:00,
2013-08-29 23:01:00,81.7,76.0,29.94,SSE,165,0.0,1.0,83,0.00,,FEW020,0.00,0.00,VWS V14.00,2013-08-30 03:01:00,
2013-08-29 23:06:00,81.7,76.0,29.94,SSE,165,0.0,0.0,83,0.00,,FEW020,0.00,0.00,VWS V14.00,2013-08-30 03:06:00,
2013-08-29 23:11:00,81.6,75.9,29.94,SSE,165,0.0,0.0,83,0.00,,FEW020,0.00,0.00,VWS V14.00,2013-08-30 03:11:00,
2013-08-29 23:17:00,81.6,75.9,29.94,SSE,165,0.0,0.0,83,0.00,,FEW020,0.00,0.00,VWS V14.00,2013-08-30 03:17:00,
2013-08-29 23:22:00,81.6,75.9,29.94,SSE,165,0.0,0.0,83,0.00,,FEW020,0.00,0.00,VWS V14.00,2013-08-30 03:22:00,
2013-08-29 23:27:00,81.5,75.8,29.94,SSE,165,0.0,0.0,83,0.00,,FEW020,0.00,0.00,VWS V14.00,2013-08-30 03:27:00,
2013-08-29 23:32:00,81.4,76.1,29.94,SSE,165,0.0,0.0,84,0.00,,FEW020,0.00,0.00,VWS V14.00,2013-08-30 03:32:00,
2013-08-29 23:37:00,81.4,76.1,29.94,SSE,165,0.0,0.0,84,0.00,,FEW020,0.00,0.00,VWS V14.00,2013-08-30 03:37:00,
2013-08-29 23:42:00,81.4,76.1,29.94,SSE,165,0.0,0.0,84,0.00,,FEW020,0.00,0.00,VWS V14.00,2013-08-30 03:42:00,
2013-08-29 23:47:00,81.3,76.0,29.94,SSE,165,0.0,0.0,84,0.00,,FEW020,0.00,0.00,VWS V14.00,2013-08-30 03:47:00,
2013-08-29 23:52:00,81.2,75.9,29.94,SSE,165,0.0,0.0,84,0.00,,FEW020,0.00,0.00,VWS V14.00,2013-08-30 03:52:00,
2013-08-29 23:57:00,81.2,75.9,29.94,SSE,165,0.0,1.0,84,0.00,,FEW020,0.00,0.00,VWS V14.00,2013-08-30 03:57:00,